Terminal Aerodrome Forecast
Issued by NWS

Home | Current Version | Previous Version | Text Only | Print | Product List | Glossary On
Versions: 1 2 3 4 5 6 7 8 9 10 11 12 13 14 15
662
FTUS44 KLZK 041339 AAB
TAFHOT
TAF AMD
KHOT 041339Z 0414/0512 03003KT 2SM -DZ BR OVC005
      TEMPO 0414/0416 1SM -DZ BR OVC002
     FM041700 34005KT 5SM -RA BR OVC015
     FM050000 01003KT P6SM OVC025
     FM050600 06004KT 3SM BR OVC009=

USA.gov is the U.S. government's official web portal to all federal, state and local government web resources and services.